Regional Weather Roundup
Issued by NWS

Home | Current Version | Previous Version | Text Only | Print | Product List | Glossary Off
Versions: 1 2 3 4 5 6 7 8 9 10 11 12 13 14 15 16 17 18 19 20 21 22 23 24 25 26 27 28 29 30 31 32 33 34 35 36 37 38 39 40 41 42 43 44 45 46 47 48 49 50

000
ASUS43 KDTX 251201
RWRMI
MICHIGAN HOURLY REGIONAL WEATHER ROUNDUP
NATIONAL WEATHER SERVICE DETROIT/PONTIAC MI
800 AM EDT SUN SEP 25 2016

NOTE: "FAIR" INDICATES FEW OR NO CLOUDS BELOW 12,000 FEET WITH NO
SIGNIFICANT WEATHER AND/OR OBSTRUCTION TO VISIBILITY.

MIZ047>049-052>055-059>063-066>070-074>076-081>083-251300-
SOUTHEAST LOWER MICHIGAN

CITY           SKY/WX    TMP DP  RH WIND       PRES   REMARKS
ADRIAN         CLEAR     50  49  96 NE3       30.21S
6HR MIN TEMP:  49; 6HR MAX TEMP:  55;

ALMA           CLEAR     46  46 100 CALM      30.22R
ANN ARBOR      CLEAR     47  47 100 CALM      30.20S
BAD AXE        PTCLDY    41  40  97 CALM      30.23S
CARO           CLOUDY    43  43  99 CALM      30.22R
DETROIT CITY   CLEAR     52  49  89 CALM      30.22R
6HR MIN TEMP:  51; 6HR MAX TEMP:  54;

DETROIT        PTCLDY    51  48  89 CALM      30.21R
6HR MIN TEMP:  51; 6HR MAX TEMP:  54;

FLINT          CLEAR     47  44  90 E3        30.22R
6HR MIN TEMP:  43; 6HR MAX TEMP:  50;

GROSSE ILE     CLEAR     57  50  79 CALM      30.20R
6HR MIN TEMP:  55; 6HR MAX TEMP:  58;

HILLSDALE      HAZE      52  46  82 SE6       30.19S VSB 3/4
HOWELL         CLEAR     49  47  93 CALM      30.20S

CITY           SKY/WX    TMP DP  RH WIND       PRES   REMARKS
JACKSON        CLEAR     51  49  92 CALM      30.20R
6HR MIN TEMP:  50; 6HR MAX TEMP:  54;

LAMBERTVILLE   CLEAR     49  47  94 CALM      30.20S
6HR MIN TEMP:  49; 6HR MAX TEMP:  56;

LANSING        CLEAR     52  46  80 CALM      30.21R
6HR MIN TEMP:  49; 6HR MAX TEMP:  53;

LAPEER         FAIR      43  43  99 CALM      30.23R
MASON          CLEAR     50  47  92 CALM      30.21R
MONROE         CLEAR     51  50  95 CALM      30.19S
PONTIAC        PTCLDY    49  45  86 CALM      30.21R
6HR MIN TEMP:  47; 6HR MAX TEMP:  52;

PORT HOPE        N/A     53  46  77 S3        30.21S
6HR MIN TEMP:  50; 6HR MAX TEMP:  62;

PORT HURON     CLEAR     45  43  93 CALM      30.23R
TRI CITIES     PTCLDY    48  46  93 CALM      30.22R
6HR MIN TEMP:  47; 6HR MAX TEMP:  51;

MIDLAND        MOCLDY    43  43 100 CALM      30.22R
6HR MIN TEMP:  42; 6HR MAX TEMP:  45;

TROY           CLEAR     52  46  79 NE3       30.24R
SAGINAW HB     CLEAR     45  43  93 CALM      30.21S
$$
MIZ043>046-050>051-056>058-064>065-071>073-077>080-251300-
SOUTHWEST LOWER MICHIGAN

CITY           SKY/WX    TMP DP  RH WIND       PRES   REMARKS
BATTLE CREEK   CLEAR     54  52  93 S3        30.19R
6HR MIN TEMP:  54; 6HR MAX TEMP:  58;

BENTON HARBOR  PTCLDY    60  52  74 SE9       30.14S
6HR MIN TEMP:  60; 6HR MAX TEMP:  62;

BIG RAPIDS     CLEAR     48  46  93 CALM      30.19S
6HR MIN TEMP:  48; 6HR MAX TEMP:  53;

COLDWATER      CLEAR     54  50  87 SE5       30.19R
6HR MIN TEMP:  54; 6HR MAX TEMP:  57;

FREMONT        MOCLDY    52  47  84 E6        30.17S
HOLLAND        CLOUDY    57  53  86 E6        30.16S
6HR MIN TEMP:  54; 6HR MAX TEMP:  57;

GRAND RAPIDS   MOCLDY    52  48  86 SE6       30.18S
6HR MIN TEMP:  51; 6HR MAX TEMP:  54;

IONIA          FAIR      47  46  95 E3        30.19S
6HR MIN TEMP:  47; 6HR MAX TEMP:  51;

KALAMAZOO      CLEAR     55  51  86 CALM      30.18S
6HR MIN TEMP:  54; 6HR MAX TEMP:  58;

LUDINGTON      CLOUDY    54  48  80 E6        30.15R
6HR MIN TEMP:  53; 6HR MAX TEMP:  54;

MARSHALL       CLEAR     52  50  93 CALM      30.19R
6HR MIN TEMP:  51; 6HR MAX TEMP:  55;

MUSKEGON       CLOUDY    56  51  84 E7        30.16S
6HR MIN TEMP:  54; 6HR MAX TEMP:  56;

SOUTH HAVEN    CLOUDY    61  56  85 SE6       30.15R
$$
MIZ016>042-251300-
NORTHERN LOWER MICHIGAN

CITY           SKY/WX    TMP DP  RH WIND       PRES   REMARKS
ALPENA         CLEAR     41  38  89 CALM      30.23S
6HR MIN TEMP:  39; 6HR MAX TEMP:  43;

BEAVER ISLAND  MOCLDY    54  51  89 SE3       30.18S
6HR MIN TEMP:  53; 6HR MAX TEMP:  56;

BELLAIRE       MOCLDY    47  45  95 CALM      30.19F
6HR MIN TEMP:  44; 6HR MAX TEMP:  48;

CADILLAC       CLOUDY    49  45  86 E6        30.18F
CHARLEVOIX     CLEAR     50  46  84 SE6       30.21F
FRANKFORT      CLOUDY    57  45  63 SE9       30.15S
GAYLORD        CLEAR     49  43  80 S5        30.21R
6HR MIN TEMP:  46; 6HR MAX TEMP:  49;

GRAYLING       CLOUDY    37  36  96 CALM      30.22S
6HR MIN TEMP:  36; 6HR MAX TEMP:  42;

HARBOR SPRINGS CLEAR     46  44  92 E5        30.20S
HOUGHTON LAKE  CLEAR     41  39  93 NE3       30.22S
6HR MIN TEMP:  38; 6HR MAX TEMP:  43;

MANISTEE       CLOUDY    51  47  86 E7        30.16S
OSCODA         CLEAR     42  40  95 CALM      30.22S
6HR MIN TEMP:  40; 6HR MAX TEMP:  43;

PELLSTON       CLEAR     38  36  92 CALM      30.21S
6HR MIN TEMP:  37; 6HR MAX TEMP:  42;

ROGERS CITY    CLEAR     51  46  82 S5        30.22F
TRAVERSE CITY  MOCLDY    54  46  74 CALM      30.16F
6HR MIN TEMP:  53; 6HR MAX TEMP:  55;

$$
MIZ007>008-015-251300-
EASTERN UPPER MICHIGAN

CITY           SKY/WX    TMP DP  RH WIND       PRES   REMARKS
KINROSS        CLOUDY    49  46  90 SE5       30.21S
6HR MIN TEMP:  48; 6HR MAX TEMP:  51;

MACKINAC ISLAN MOCLDY    54  48  79 SE7       30.20S
NEWBERRY       CLEAR     48  47  97 SE3       30.17S
6HR MIN TEMP:  45; 6HR MAX TEMP:  49;

S. S. MARIE    PTCLDY    52  50  93 E5        30.20F
6HR MIN TEMP:  51; 6HR MAX TEMP:  54;

MUNISING         N/A     55  53  93 S8        30.11F
6HR MIN TEMP:  51; 6HR MAX TEMP:  55;

$$
MIZ004>006-011>014-085-251300-
CENTRAL UPPER MICHIGAN

CITY           SKY/WX    TMP DP  RH WIND       PRES   REMARKS
MANISTIQUE     MOCLDY    60  55  81 S10       30.14S
6HR MIN TEMP:  59; 6HR MAX TEMP:  61;

ESCANABA       CLOUDY    63  57  81 S10       30.11F
6HR MIN TEMP:  52; 6HR MAX TEMP:  64;

MENOMINEE      CLOUDY    63  57  81 S7        30.10F
6HR MIN TEMP:  55; 6HR MAX TEMP:  63;

SAWYER-GWINN   CLEAR     55  54  94 S9        30.10F
$$
MIZ001>003-009>011-084-251300-
WESTERN UPPER MICHIGAN

CITY           SKY/WX    TMP DP  RH WIND       PRES   REMARKS
IRON MOUNTAIN  CLOUDY    58  54  86 SE6       30.08F
6HR MIN TEMP:  53; 6HR MAX TEMP:  58;

HOUGHTON       CLOUDY    59  52  77 SE12      30.02F
6HR MIN TEMP:  54; 6HR MAX TEMP:  59;

COPPER HARBOR    N/A     61  56  83 MISG      30.02F
6HR MIN TEMP:  60; 6HR MAX TEMP:  61;

IRONWOOD       PTCLDY    61  57  87 S9        29.97F
6HR MIN TEMP:  59; 6HR MAX TEMP:  61;

$$

ABBREVIATIONS USED IN REMARKS
   TC - TEMPERATURE IN CELSIUS
  WCI - WIND CHILL INDEX
   HX - HEAT INDEX
  VSB - VISIBILITY





USA.gov is the U.S. government's official web portal to all federal, state and local government web resources and services.